• In Belarus
  • List of Countries
  • For 7 days
  • Water Temperature
  • Satellite Maps
  • Weather Map
  • Weather Widgets
  • user-avatar
    Login

    Hourly Weather Saurimo

    Today, 23 May, Thursday

    Time Temperature Precipitation Wind Pressure Humidity
    00:00 +24°C° 0 mm 1 mps 671 mmHg 63%
    01:00 +22°C° 0 mm 1 mps 670 mmHg 67%
    02:00 +22°C° 0 mm 1 mps 670 mmHg 67%
    03:00 +21°C° 0 mm 1 mps 670 mmHg 68%
    04:00 +21°C° 0 mm 1 mps 670 mmHg 68%
    05:00 +21°C° 0 mm 1 mps 671 mmHg 66%
    06:00 +21°C° 0 mm 2 mps 671 mmHg 63%
    07:00 +21°C° 0 mm 2 mps 672 mmHg 60%
    08:00 +25°C° 0 mm 3 mps 672 mmHg 53%
    09:00 +28°C° 0 mm 3 mps 673 mmHg 46%
    10:00 +30°C° 0 mm 3 mps 673 mmHg 39%
    11:00 +31°C° 0 mm 3 mps 673 mmHg 37%
    12:00 +33°C° 0 mm 3 mps 672 mmHg 35%
    13:00 +32°C° 0 mm 2 mps 672 mmHg 33%
    14:00 +31°C° 0 mm 2 mps 671 mmHg 37%
    15:00 +30°C° 0 mm 2 mps 671 mmHg 40%
    16:00 +29°C° 0 mm 1 mps 670 mmHg 44%
    17:00 +28°C° 0 mm 1 mps 670 mmHg 48%
    18:00 +26°C° 0 mm 1 mps 671 mmHg 52%
    19:00 +25°C° 0 mm 1 mps 671 mmHg 56%
    20:00 +24°C° 0 mm 1 mps 671 mmHg 58%
    21:00 +23°C° 0 mm 1 mps 671 mmHg 59%
    22:00 +23°C° 0 mm 1 mps 671 mmHg 61%
    23:00 +22°C° 0 mm 1 mps 671 mmHg 61%

    Tomorrow, 24 May, Friday

    Time Temperature Precipitation Wind Pressure Humidity
    00:00 +22°C° 0 mm 1 mps 671 mmHg 60%
    01:00 +22°C° 0 mm 1 mps 671 mmHg 60%
    02:00 +21°C° 0 mm 1 mps 671 mmHg 61%
    03:00 +21°C° 0 mm 1 mps 670 mmHg 62%
    04:00 +21°C° 0 mm 1 mps 670 mmHg 63%
    05:00 +21°C° 0 mm 1 mps 671 mmHg 62%
    06:00 +21°C° 0 mm 2 mps 671 mmHg 61%
    07:00 +21°C° 0 mm 2 mps 672 mmHg 59%
    08:00 +25°C° 0 mm 2 mps 672 mmHg 52%
    09:00 +28°C° 0 mm 3 mps 673 mmHg 44%
    10:00 +32°C° 0 mm 4 mps 674 mmHg 36%
    11:00 +33°C° 0 mm 3 mps 673 mmHg 34%
    12:00 +34°C° 0 mm 3 mps 673 mmHg 32%
    13:00 +35°C° 0 mm 3 mps 672 mmHg 30%
    14:00 +34°C° 0 mm 3 mps 672 mmHg 32%
    15:00 +32°C° 0 mm 2 mps 671 mmHg 34%
    16:00 +31°C° 0 mm 2 mps 671 mmHg 35%
    17:00 +30°C° 0 mm 2 mps 671 mmHg 38%
    18:00 +28°C° 0 mm 2 mps 671 mmHg 41%
    19:00 +27°C° 0 mm 1 mps 671 mmHg 44%
    20:00 +26°C° 0 mm 2 mps 671 mmHg 44%
    21:00 +26°C° 0 mm 2 mps 672 mmHg 44%
    22:00 +25°C° 0 mm 2 mps 672 mmHg 44%
    23:00 +25°C° 0 mm 3 mps 672 mmHg 42%

    Day after tomorrow, 25 May, Saturday

    Time Temperature Precipitation Wind Pressure Humidity
    00:00 +24°C° 0 mm 3 mps 672 mmHg 40%
    01:00 +24°C° 0 mm 3 mps 671 mmHg 38%
    02:00 +22°C° 0 mm 3 mps 671 mmHg 39%
    03:00 +21°C° 0 mm 3 mps 671 mmHg 41%
    04:00 +20°C° 0 mm 3 mps 670 mmHg 42%
    05:00 +20°C° 0 mm 3 mps 671 mmHg 42%
    06:00 +21°C° 0 mm 3 mps 671 mmHg 43%
    07:00 +21°C° 0 mm 3 mps 672 mmHg 43%
    08:00 +23°C° 0 mm 4 mps 672 mmHg 37%
    09:00 +27°C° 0 mm 4 mps 673 mmHg 32%
    10:00 +30°C° 0 mm 4 mps 674 mmHg 27%
    11:00 +32°C° 0 mm 4 mps 673 mmHg 25%
    12:00 +33°C° 0 mm 4 mps 673 mmHg 23%
    13:00 +34°C° 0 mm 4 mps 672 mmHg 22%
    14:00 +33°C° 0 mm 3 mps 672 mmHg 22%
    15:00 +33°C° 0 mm 3 mps 671 mmHg 23%
    16:00 +33°C° 0 mm 3 mps 670 mmHg 24%
    17:00 +29°C° 0 mm 2 mps 671 mmHg 29%
    18:00 +27°C° 0 mm 2 mps 671 mmHg 34%
    19:00 +24°C° 0 mm 1 mps 671 mmHg 39%
    20:00 +23°C° 0 mm 2 mps 671 mmHg 40%
    21:00 +23°C° 0 mm 2 mps 671 mmHg 42%
    22:00 +21°C° 0 mm 2 mps 671 mmHg 43%
    23:00 +20°C° 0 mm 2 mps 671 mmHg 43%

    26 May, Sunday

    Time Temperature Precipitation Wind Pressure Humidity
    00:00 +20°C° 0 mm 2 mps 671 mmHg 42%
    01:00 +20°C° 0 mm 2 mps 670 mmHg 42%
    02:00 +19°C° 0 mm 2 mps 670 mmHg 42%
    03:00 +19°C° 0 mm 2 mps 670 mmHg 43%
    04:00 +19°C° 0 mm 2 mps 670 mmHg 43%
    05:00 +19°C° 0 mm 3 mps 671 mmHg 44%
    06:00 +19°C° 0 mm 3 mps 671 mmHg 44%
    07:00 +20°C° 0 mm 3 mps 672 mmHg 44%
    08:00 +22°C° 0 mm 4 mps 672 mmHg 41%
    09:00 +26°C° 0 mm 4 mps 673 mmHg 38%
    10:00 +29°C° 0 mm 4 mps 673 mmHg 34%
    11:00 +30°C° 0 mm 3 mps 673 mmHg 32%
    12:00 +31°C° 0 mm 3 mps 672 mmHg 30%
    13:00 +34°C° 0 mm 3 mps 671 mmHg 28%
    14:00 +32°C° 0 mm 2 mps 671 mmHg 29%
    15:00 +32°C° 0 mm 2 mps 671 mmHg 30%
    16:00 +31°C° 0 mm 2 mps 670 mmHg 30%
    17:00 +29°C° 0 mm 2 mps 670 mmHg 36%
    18:00 +27°C° 0 mm 2 mps 670 mmHg 41%
    19:00 +24°C° 0 mm 2 mps 671 mmHg 46%
    20:00 +24°C° 0 mm 2 mps 671 mmHg 47%
    21:00 +23°C° 0 mm 2 mps 671 mmHg 47%
    22:00 +23°C° 0 mm 2 mps 671 mmHg 47%
    23:00 +21°C° 0 mm 2 mps 671 mmHg 47%

    27 May, Monday

    Time Temperature Precipitation Wind Pressure Humidity
    00:00 +21°C° 0 mm 2 mps 670 mmHg 47%
    01:00 +20°C° 0 mm 2 mps 670 mmHg 46%
    02:00 +20°C° 0 mm 2 mps 670 mmHg 45%
    03:00 +20°C° 0 mm 3 mps 670 mmHg 44%
    04:00 +19°C° 0 mm 3 mps 670 mmHg 43%
    05:00 +20°C° 0 mm 3 mps 671 mmHg 42%
    06:00 +20°C° 0 mm 3 mps 671 mmHg 41%
    07:00 +21°C° 0 mm 4 mps 672 mmHg 39%
    08:00 +23°C° 0 mm 4 mps 672 mmHg 35%
    09:00 +27°C° 0 mm 4 mps 673 mmHg 31%
    10:00 +30°C° 0 mm 4 mps 673 mmHg 27%
    11:00 +31°C° 0 mm 3 mps 672 mmHg 25%
    12:00 +33°C° 0 mm 3 mps 672 mmHg 23%
    13:00 +34°C° 0 mm 2 mps 671 mmHg 22%
    14:00 +32°C° 0 mm 2 mps 670 mmHg 23%
    15:00 +32°C° 0 mm 2 mps 670 mmHg 24%
    16:00 +31°C° 0 mm 2 mps 670 mmHg 25%
    17:00 +29°C° 0 mm 2 mps 670 mmHg 30%
    18:00 +27°C° 0 mm 2 mps 670 mmHg 35%
    19:00 +24°C° 0 mm 2 mps 670 mmHg 39%
    20:00 +24°C° 0 mm 2 mps 670 mmHg 41%
    21:00 +23°C° 0 mm 2 mps 671 mmHg 43%
    22:00 +21°C° 0 mm 2 mps 671 mmHg 44%
    23:00 +20°C° 0 mm 2 mps 670 mmHg 46%

    28 May, Tuesday

    Time Temperature Precipitation Wind Pressure Humidity
    00:00 +21°C° 0 mm 1 mps 670 mmHg 48%
    01:00 +20°C° 0 mm 1 mps 670 mmHg 50%
    02:00 +20°C° 0 mm 1 mps 670 mmHg 51%
    03:00 +19°C° 0 mm 1 mps 670 mmHg 52%
    04:00 +18°C° 0 mm 2 mps 670 mmHg 53%
    05:00 +18°C° 0 mm 2 mps 670 mmHg 51%
    06:00 +19°C° 0 mm 2 mps 671 mmHg 49%
    07:00 +20°C° 0 mm 3 mps 672 mmHg 48%
    08:00 +24°C° 0 mm 3 mps 672 mmHg 43%
    09:00 +26°C° 0 mm 3 mps 673 mmHg 39%
    10:00 +29°C° 0 mm 3 mps 673 mmHg 35%
    11:00 +31°C° 0 mm 2 mps 672 mmHg 32%
    12:00 +32°C° 0 mm 2 mps 672 mmHg 28%
    13:00 +35°C° 0 mm 2 mps 671 mmHg 25%
    14:00 +32°C° 0 mm 2 mps 671 mmHg 28%
    15:00 +31°C° 0 mm 2 mps 670 mmHg 31%
    16:00 +30°C° 0 mm 2 mps 670 mmHg 34%
    17:00 +28°C° 0 mm 2 mps 670 mmHg 37%
    18:00 +27°C° 0 mm 2 mps 670 mmHg 40%
    19:00 +26°C° 0 mm 2 mps 671 mmHg 43%
    20:00 +25°C° 0 mm 2 mps 671 mmHg 45%
    21:00 +24°C° 0 mm 2 mps 671 mmHg 47%
    22:00 +23°C° 0 mm 2 mps 671 mmHg 49%
    23:00 +21°C° 0 mm 2 mps 670 mmHg 52%
    Show more